| time (UTC) | temp C | wind direction | speed KPH | gust KPH | rain 1hr cm | rain 24hr cm | rain mn cm | humidity % | barometer mb |
| 20260506215349 | 11 | 0.0 | 0.0 | 0.00 | 0.00 | 0.00 | 82 | 1010.0 | |
| 20260506214328 | 11 | 0.0 | 0.0 | 0.00 | 0.00 | 0.00 | 82 | 1010.0 | |
| 20260506213307 | 11 | 0.0 | 0.0 | 0.00 | 0.00 | 0.00 | 82 | 1009.9 | |
| 20260506212247 | 11 | 0.0 | 0.0 | 0.00 | 0.00 | 0.00 | 82 | 1009.7 | |
| 20260506210204 | 11 | 0.0 | 0.0 | 0.00 | 0.00 | 0.00 | 81 | 1009.8 | |
| 20260506205144 | 11 | 0.0 | 0.0 | 0.00 | 0.00 | 0.00 | 82 | 1009.7 | |
| 20260506204122 | 11 | 0.0 | 0.0 | 0.00 | 0.00 | 0.00 | 81 | 1009.4 | |
| 20260506203101 | 11 | 0.0 | 0.0 | 0.00 | 0.00 | 0.00 | 81 | 1009.2 | |
| 20260506202045 | 11 | 0.0 | 0.0 | 0.00 | 0.00 | 0.00 | 81 | 1009.1 | |
| 20260506201020 | 11 | 0.0 | 0.0 | 0.00 | 0.00 | 0.00 | 81 | 1008.8 | |
| 20260506195953 | 11 | 0.0 | 0.0 | 0.00 | 0.00 | 0.00 | 81 | 1008.6 | |
| 20260506194933 | 11 | 0.0 | 0.0 | 0.00 | 0.00 | 0.00 | 81 | 1008.3 | |
| 20260506193912 | 11 | 0.0 | 0.0 | 0.00 | 0.00 | 0.00 | 80 | 1008.1 | |
| 20260506192846 | 11 | 0.0 | 0.0 | 0.00 | 0.00 | 0.00 | 79 | 1007.8 | |
| 20260506191825 | 12 | 0.0 | 0.0 | 0.00 | 0.00 | 0.00 | 80 | 1007.4 | |
| 20260506190805 | 12 | 0.0 | 0.0 | 0.00 | 0.00 | 0.00 | 80 | 1007.1 | |
| 20260506185744 | 12 | 0.0 | 0.0 | 0.00 | 0.00 | 0.00 | 80 | 1007.0 | |
| 20260506184723 | 12 | 0.0 | 0.0 | 0.00 | 0.00 | 0.00 | 79 | 1006.8 | |
| 20260506183702 | 12 | 0.0 | 0.0 | 0.00 | 0.00 | 0.00 | 80 | 1006.7 | |
| 20260506182640 | 13 | 0.0 | 0.0 | 0.00 | 0.00 | 0.00 | 79 | 1006.5 | |
| 20260506181619 | 13 | 0.0 | 0.0 | 0.00 | 0.00 | 0.00 | 79 | 1006.3 | |
| 20260506180557 | 14 | 0.0 | 0.0 | 0.00 | 0.00 | 0.00 | 79 | 1006.2 | |
| 20260506175536 | 14 | 0.0 | 0.0 | 0.00 | 0.00 | 0.00 | 79 | 1006.0 | |
| 20260506174515 | 14 | 0.0 | 0.0 | 0.00 | 0.00 | 0.00 | 79 | 1005.8 | |
| 20260506173453 | 14 | 0.0 | 0.0 | 0.00 | 0.00 | 0.00 | 79 | 1005.6 | |
| 20260506172429 | 15 | 0.0 | 0.0 | 0.00 | 0.00 | 0.00 | 79 | 1005.5 | |
| 20260506171408 | 15 | 0.0 | 0.0 | 0.00 | 0.00 | 0.00 | 79 | 1005.5 | |
| 20260506170347 | 15 | 0.0 | 0.0 | 0.00 | 0.00 | 0.00 | 79 | 1005.5 | |
| 20260506165327 | 15 | 0.0 | 0.0 | 0.00 | 0.00 | 0.00 | 79 | 1005.4 | |
| 20260506164306 | 15 | 0.0 | 0.0 | 0.00 | 0.00 | 0.00 | 79 | 1005.4 | |
| 20260506163245 | 15 | 0.0 | 0.0 | 0.00 | 0.00 | 0.00 | 78 | 1005.3 | |
| 20260506162222 | 15 | 0.0 | 0.0 | 0.00 | 0.00 | 0.00 | 78 | 1005.3 | |
| 20260506161201 | 16 | 0.0 | 0.0 | 0.00 | 0.00 | 0.00 | 77 | 1005.3 | |
| 20260506160139 | 16 | 0.0 | 0.0 | 0.00 | 0.00 | 0.00 | 77 | 1005.3 | |
| 20260506155059 | 17 | 0.0 | 0.0 | 0.00 | 0.00 | 0.00 | 76 | 1005.1 | |
| 20260506154037 | 17 | 0.0 | 0.0 | 0.00 | 0.00 | 0.00 | 76 | 1004.9 | |
| 20260506153016 | 19 | 0.0 | 0.0 | 0.00 | 0.00 | 0.00 | 75 | 1005.0 | |
| 20260506151956 | 19 | 0.0 | 0.0 | 0.00 | 0.00 | 0.00 | 75 | 1005.0 | |
| 20260506150925 | 21 | 0.0 | 0.0 | 0.00 | 0.00 | 0.00 | 73 | 1005.0 | |
| 20260506145904 | 21 | 0.0 | 0.0 | 0.00 | 0.00 | 0.00 | 75 | 1005.1 | |
| 20260506144843 | 20 | 0.0 | 0.0 | 0.00 | 0.00 | 0.00 | 76 | 1005.1 | |
| 20260506143822 | 20 | 0.0 | 0.0 | 0.00 | 0.00 | 0.00 | 79 | 1005.1 | |
| 20260506142801 | 20 | 0.0 | 0.0 | 0.00 | 0.00 | 0.00 | 78 | 1005.1 | |
| 20260506141740 | 20 | 0.0 | 0.0 | 0.00 | 0.00 | 0.00 | 76 | 1005.2 | |
| 20260506135657 | 21 | 0.0 | 0.0 | 0.00 | 0.00 | 0.00 | 77 | 1005.2 | |
| 20260506134636 | 20 | 0.0 | 0.0 | 0.00 | 0.00 | 0.00 | 79 | 1005.3 | |
| 20260506133615 | 20 | 0.0 | 0.0 | 0.00 | 0.00 | 0.00 | 78 | 1005.3 | |
| 20260506132554 | 19 | 0.0 | 0.0 | 0.00 | 0.00 | 0.00 | 79 | 1005.4 | |
| 20260506131533 | 18 | 0.0 | 0.0 | 0.00 | 0.00 | 0.00 | 79 | 1005.5 | |
| 20260506130512 | 19 | 0.0 | 0.0 | 0.00 | 0.00 | 0.00 | 77 | 1005.6 | |
| 20260506125452 | 22 | 0.0 | 0.0 | 0.00 | 0.00 | 0.00 | 77 | 1005.6 | |
| 20260506124431 | 21 | 0.0 | 0.0 | 0.00 | 0.00 | 0.00 | 77 | 1005.6 | |
| 20260506123410 | 22 | 0.0 | 0.0 | 0.00 | 0.00 | 0.00 | 79 | 1005.5 | |
| 20260506122349 | 21 | 0.0 | 0.0 | 0.00 | 0.00 | 0.00 | 77 | 1005.5 | |
| 20260506121329 | 21 | 0.0 | 0.0 | 0.00 | 0.00 | 0.00 | 77 | 1005.5 | |
| 20260506120305 | 20 | 0.0 | 0.0 | 0.00 | 0.00 | 0.00 | 78 | 1005.6 | |
| 20260506115244 | 21 | 0.0 | 0.0 | 0.00 | 0.00 | 0.00 | 80 | 1005.6 | |
| 20260506114223 | 20 | 0.0 | 0.0 | 0.00 | 0.00 | 0.00 | 81 | 1005.8 | |
| 20260506113157 | 18 | 0.0 | 0.0 | 0.00 | 0.00 | 0.00 | 80 | 1006.0 | |
| 20260506111112 | 19 | 0.0 | 0.0 | 0.00 | 0.00 | 0.00 | 76 | 1006.0 | |
| 20260506110053 | 19 | 0.0 | 0.0 | 0.00 | 0.00 | 0.00 | 78 | 1006.2 | |
| 20260506105030 | 17 | 0.0 | 0.0 | 0.00 | 0.00 | 0.00 | 80 | 1006.3 | |
| 20260506104010 | 16 | 0.0 | 0.0 | 0.00 | 0.00 | 0.00 | 79 | 1006.5 | |
| 20260506102948 | 17 | 0.0 | 0.0 | 0.00 | 0.00 | 0.00 | 79 | 1006.6 | |
| 20260506101919 | 17 | 0.0 | 0.0 | 0.00 | 0.00 | 0.00 | 79 | 1006.6 | |
| 20260506100854 | 16 | 0.0 | 0.0 | 0.00 | 0.00 | 0.00 | 81 | 1006.8 | |
| 20260506095834 | 16 | 0.0 | 0.0 | 0.00 | 0.00 | 0.00 | 81 | 1006.7 | |
| 20260506094812 | 14 | 0.0 | 0.0 | 0.00 | 0.00 | 0.00 | 80 | 1006.8 | |
| 20260506093751 | 15 | 0.0 | 0.0 | 0.00 | 0.00 | 0.00 | 82 | 1006.8 | |
| 20260506092731 | 15 | 0.0 | 0.0 | 0.00 | 0.00 | 0.00 | 78 | 1006.8 | |
| 20260506091707 | 14 | 0.0 | 0.0 | 0.00 | 0.00 | 0.00 | 82 | 1006.9 | |
| 20260506090641 | 14 | 0.0 | 0.0 | 0.00 | 0.00 | 0.00 | 81 | 1006.8 | |
| 20260506085619 | 13 | 0.0 | 0.0 | 0.00 | 0.00 | 0.00 | 82 | 1006.8 | |
| 20260506084559 | 13 | 0.0 | 0.0 | 0.00 | 0.00 | 0.00 | 83 | 1006.8 | |
| 20260506083538 | 13 | 0.0 | 0.0 | 0.00 | 0.00 | 0.00 | 85 | 1006.9 | |
| 20260506082517 | 12 | 0.0 | 0.0 | 0.00 | 0.00 | 0.00 | 83 | 1006.9 | |
| 20260506081456 | 11 | 0.0 | 0.0 | 0.00 | 0.00 | 0.00 | 84 | 1006.9 | |
| 20260506080436 | 11 | 0.0 | 0.0 | 0.00 | 0.00 | 0.00 | 85 | 1007.0 | |
| 20260506073331 | 10 | 0.0 | 0.0 | 0.00 | 0.00 | 0.00 | 84 | 1007.0 | |
| 20260506072310 | 10 | 0.0 | 0.0 | 0.00 | 0.00 | 0.00 | 84 | 1006.9 | |
| 20260506071249 | 10 | 0.0 | 0.0 | 0.00 | 0.00 | 0.00 | 85 | 1007.0 | |
| 20260506070228 | 10 | 0.0 | 0.0 | 0.00 | 0.00 | 0.00 | 85 | 1007.1 | |
| 20260506062101 | 9 | 0.0 | 0.0 | 0.00 | 0.00 | 0.00 | 86 | 1007.3 | |
| 20260506061041 | 9 | 0.0 | 0.0 | 0.00 | 0.00 | 0.00 | 86 | 1007.4 | |
| 20260506050753 | 8 | 0.0 | 0.0 | 0.00 | 0.00 | 0.00 | 85 | 1007.6 | |
| 20260506044706 | 8 | 0.0 | 0.0 | 0.00 | 0.00 | 0.00 | 85 | 1007.6 | |
| 20260506043646 | 8 | 0.0 | 0.0 | 0.00 | 0.00 | 0.00 | 85 | 1007.7 | |
| 20260506042621 | 8 | 0.0 | 0.0 | 0.00 | 0.00 | 0.00 | 85 | 1008.0 | |
| 20260506041600 | 8 | 0.0 | 0.0 | 0.00 | 0.00 | 0.00 | 85 | 1008.0 | |
| 20260506035519 | 8 | 0.0 | 0.0 | 0.00 | 0.00 | 0.00 | 85 | 1008.3 | |
| 20260506034458 | 8 | 0.0 | 0.0 | 0.00 | 0.00 | 0.00 | 85 | 1008.1 | |
| 20260506033437 | 8 | 0.0 | 0.0 | 0.00 | 0.00 | 0.00 | 85 | 1008.2 | |
| 20260506032416 | 8 | 0.0 | 0.0 | 0.00 | 0.00 | 0.00 | 85 | 1008.7 | |
| 20260506031353 | 8 | 0.0 | 0.0 | 0.00 | 0.00 | 0.00 | 85 | 1008.0 | |
| 20260506030332 | 8 | 0.0 | 0.0 | 0.00 | 0.00 | 0.00 | 85 | 1008.5 | |
| 20260506025311 | 8 | 0.0 | 0.0 | 0.00 | 0.00 | 0.00 | 85 | 1008.9 | |
| 20260506024250 | 8 | 0.0 | 0.0 | 0.00 | 0.00 | 0.00 | 85 | 1008.6 | |
| 20260506023228 | 8 | 0.0 | 0.0 | 0.00 | 0.00 | 0.00 | 85 | 1008.9 | |
| 20260506022207 | 8 | 0.0 | 0.0 | 0.00 | 0.00 | 0.00 | 85 | 1009.1 | |
| 20260506021147 | 8 | 0.0 | 0.0 | 0.00 | 0.00 | 0.00 | 85 | 1009.3 | |
| 20260506020119 | 8 | 0.0 | 0.0 | 0.00 | 0.00 | 0.00 | 85 | 1009.1 | |
| 20260506015059 | 8 | 0.0 | 0.0 | 0.00 | 0.00 | 0.00 | 84 | 1009.0 | |
| 20260506014038 | 8 | 0.0 | 0.0 | 0.00 | 0.00 | 0.00 | 84 | 1009.1 | |
| 20260506011954 | 8 | 0.0 | 0.0 | 0.00 | 0.00 | 0.00 | 84 | 1009.3 | |
| 20260506010933 | 8 | 0.0 | 0.0 | 0.00 | 0.00 | 0.00 | 84 | 1009.4 | |
| 20260506005912 | 8 | 0.0 | 0.0 | 0.00 | 0.00 | 0.00 | 84 | 1009.7 | |
| 20260506004852 | 9 | 0.0 | 0.0 | 0.00 | 0.00 | 0.00 | 84 | 1009.9 | |
| 20260506003831 | 9 | 0.0 | 0.0 | 0.00 | 0.00 | 0.00 | 84 | 1010.1 | |
| 20260506002810 | 9 | 0.0 | 0.0 | 0.00 | 0.00 | 0.00 | 84 | 1010.2 | |
| 20260506001749 | 9 | 0.0 | 0.0 | 0.00 | 0.00 | 0.00 | 84 | 1010.4 | |
| 20260506000728 | 9 | 0.0 | 0.0 | 0.00 | 0.00 | 0.00 | 84 | 1010.7 | |
| 20260505235707 | 9 | 0.0 | 0.0 | 0.00 | 0.00 | 0.00 | 84 | 1011.0 | |
| 20260505234646 | 9 | 0.0 | 0.0 | 0.00 | 0.00 | 0.00 | 84 | 1010.7 | |
| 20260505233623 | 9 | 0.0 | 0.0 | 0.00 | 0.00 | 0.00 | 84 | 1010.9 | |
| 20260505232602 | 9 | 0.0 | 0.0 | 0.00 | 0.00 | 0.00 | 84 | 1011.2 | |
| 20260505231541 | 9 | 0.0 | 0.0 | 0.00 | 0.00 | 0.00 | 84 | 1011.4 | |
| 20260505230521 | 9 | 0.0 | 0.0 | 0.00 | 0.00 | 0.00 | 84 | 1011.3 | |
| 20260505225500 | 9 | 0.0 | 0.0 | 0.00 | 0.00 | 0.00 | 84 | 1011.2 | |
| 20260505224519 | 9 | 0.0 | 0.0 | 0.00 | 0.00 | 0.00 | 84 | 1011.3 | |
| 20260505224456 | 9 | 0.0 | 0.0 | 0.00 | 0.00 | 0.00 | 84 | 1011.3 | |
| 20260505224443 | 9 | 0.0 | 0.0 | 0.00 | 0.00 | 0.00 | 84 | 1011.3 | |
| 20260505223418 | 9 | 0.0 | 0.0 | 0.00 | 0.00 | 0.00 | 84 | 1011.3 | |
| 20260505222358 | 9 | 0.0 | 0.0 | 0.00 | 0.00 | 0.00 | 84 | 1011.4 | |
| 20260505221337 | 9 | 0.0 | 0.0 | 0.00 | 0.00 | 0.00 | 84 | 1011.5 | |
| 20260505220316 | 9 | 0.0 | 0.0 | 0.00 | 0.00 | 0.00 | 84 | 1011.6 |